Time,TemperatureF,DewpointF,PressureIn,WindDirection,WindDirectionDegrees,WindSpeedMPH,WindSpeedGustMPH,Humidity,HourlyPrecipIn,Conditions,Clouds,dailyrainin,SoftwareType,DateUTC
2013-06-12 00:05:00,72.3,64.8,29.94,North,0,0.0,0.0,72,0.00,NA,NA,0.00,meteo_script,2013-06-12 05:05:00,
2013-06-12 00:35:00,71.5,64.6,29.95,North,0,0.0,0.0,74,0.00,NA,NA,0.00,meteo_script,2013-06-12 05:35:00,
2013-06-12 01:05:00,71.2,64.4,29.94,North,0,0.0,0.0,74,0.00,NA,NA,0.00,meteo_script,2013-06-12 06:05:00,
2013-06-12 01:35:00,70.7,64.5,29.96,North,0,0.0,0.0,76,0.00,NA,NA,0.00,meteo_script,2013-06-12 06:35:00,
2013-06-12 02:05:00,70.5,64.6,29.97,North,0,0.0,0.0,77,0.00,NA,NA,0.00,meteo_script,2013-06-12 07:05:00,
2013-06-12 02:35:00,70.3,64.4,29.95,North,0,0.5,2.0,77,0.00,NA,NA,0.00,meteo_script,2013-06-12 07:35:00,
2013-06-12 03:05:00,69.7,64.4,29.90,North,0,1.5,3.0,79,0.00,NA,NA,0.00,meteo_script,2013-06-12 08:05:00,
2013-06-12 03:35:00,69.8,64.2,29.96,NE,48,0.0,1.0,78,0.00,NA,NA,0.00,meteo_script,2013-06-12 08:35:00,
2013-06-12 04:05:00,69.6,64.3,29.95,North,0,0.0,0.0,79,0.00,NA,NA,0.00,meteo_script,2013-06-12 09:05:00,
2013-06-12 04:35:00,69.2,64.3,29.93,NE,48,1.0,2.0,80,0.00,NA,NA,0.00,meteo_script,2013-06-12 09:35:00,
2013-06-12 05:05:00,68.9,64.1,29.94,ENE,78,1.0,2.0,81,0.00,NA,NA,0.00,meteo_script,2013-06-12 10:05:00,
2013-06-12 05:35:00,68.7,63.4,29.92,North,0,0.0,0.0,79,0.00,NA,NA,0.00,meteo_script,2013-06-12 10:35:00,
2013-06-12 06:05:00,68.6,63.0,29.93,North,0,0.0,0.0,77,0.00,NA,NA,0.00,meteo_script,2013-06-12 11:05:00,
2013-06-12 06:35:00,68.7,62.8,29.96,North,0,0.0,0.0,77,0.00,NA,NA,0.00,meteo_script,2013-06-12 11:35:00,
2013-06-12 07:05:00,68.7,63.1,29.98,SSW,197,0.9,5.0,78,0.00,NA,NA,0.00,meteo_script,2013-06-12 12:05:00,
2013-06-12 07:35:00,68.8,63.6,29.98,SSW,213,2.6,4.0,79,0.00,NA,NA,0.00,meteo_script,2013-06-12 12:35:00,
2013-06-12 08:05:00,68.9,63.9,29.97,SSW,209,2.3,4.0,79,0.00,NA,NA,0.00,meteo_script,2013-06-12 13:05:00,
2013-06-12 08:35:00,69.1,63.8,29.94,North,0,0.0,0.0,79,0.00,NA,NA,0.00,meteo_script,2013-06-12 13:35:00,
2013-06-12 09:05:00,69.1,64.1,29.98,SSW,213,2.4,3.0,80,0.00,NA,NA,0.00,meteo_script,2013-06-12 14:05:00,
2013-06-12 09:35:00,68.8,64.3,29.83,ENE,57,2.1,5.0,82,0.02,NA,NA,0.01,meteo_script,2013-06-12 14:35:00,
2013-06-12 10:05:00,69.9,65.4,29.82,North,0,0.0,0.0,82,0.00,NA,NA,0.01,meteo_script,2013-06-12 15:05:00,
2013-06-12 10:35:00,72.1,66.4,29.84,SW,226,1.4,3.0,78,0.00,NA,NA,0.01,meteo_script,2013-06-12 15:35:00,
2013-06-12 11:05:00,73.1,66.8,29.81,NE,38,0.9,4.0,76,0.00,NA,NA,0.01,meteo_script,2013-06-12 16:05:00,
2013-06-12 11:35:00,76.1,68.1,29.83,ENE,68,0.0,1.0,70,0.00,NA,NA,0.01,meteo_script,2013-06-12 16:35:00,
2013-06-12 12:05:00,76.4,68.1,29.85,NE,56,0.4,2.0,70,0.00,NA,NA,0.01,meteo_script,2013-06-12 17:05:00,
2013-06-12 12:35:00,78.2,68.5,29.87,ESE,105,0.5,2.0,66,0.00,NA,NA,0.01,meteo_script,2013-06-12 17:35:00,
2013-06-12 13:05:00,79.3,69.2,29.89,SW,229,0.7,2.0,65,0.00,NA,NA,0.01,meteo_script,2013-06-12 18:05:00,
2013-06-12 13:35:00,78.4,69.1,29.88,WSW,256,1.7,3.0,67,0.00,NA,NA,0.01,meteo_script,2013-06-12 18:35:00,
2013-06-12 14:05:00,78.1,69.0,29.86,ENE,64,1.2,2.0,68,0.00,NA,NA,0.01,meteo_script,2013-06-12 19:05:00,
2013-06-12 14:35:00,78.4,69.2,29.86,ENE,66,1.1,3.0,67,0.00,NA,NA,0.01,meteo_script,2013-06-12 19:35:00,
2013-06-12 15:05:00,76.9,69.2,29.85,East,80,1.0,2.0,72,0.00,NA,NA,0.01,meteo_script,2013-06-12 20:05:00,
2013-06-12 15:35:00,78.0,68.9,29.83,ENE,64,0.6,2.0,68,0.00,NA,NA,0.01,meteo_script,2013-06-12 20:35:00,
2013-06-12 16:05:00,78.1,69.5,29.81,NE,39,0.1,1.0,69,0.00,NA,NA,0.01,meteo_script,2013-06-12 21:05:00,
2013-06-12 16:35:00,77.8,69.0,29.78,NE,41,2.4,8.0,69,0.00,NA,NA,0.01,meteo_script,2013-06-12 21:35:00,
2013-06-12 17:05:00,78.5,69.4,29.75,ENE,67,2.9,5.0,68,0.00,NA,NA,0.01,meteo_script,2013-06-12 22:05:00,
2013-06-12 17:35:00,76.4,68.1,29.75,ENE,61,0.6,3.0,70,0.00,NA,NA,0.01,meteo_script,2013-06-12 22:35:00,
2013-06-12 18:05:00,75.4,67.1,29.73,SSW,196,1.0,2.0,70,0.00,NA,NA,0.01,meteo_script,2013-06-12 23:05:00,
2013-06-12 18:35:00,73.4,66.3,29.76,North,357,5.2,9.0,73,0.02,NA,NA,0.02,meteo_script,2013-06-12 23:35:00,
2013-06-12 19:05:00,69.5,65.6,29.70,NNE,25,2.5,7.0,84,1.00,NA,NA,0.52,meteo_script,2013-06-13 00:05:00,
2013-06-12 19:35:00,68.3,64.9,29.77,NNE,24,1.5,2.0,86,0.02,NA,NA,0.53,meteo_script,2013-06-13 00:35:00,
2013-06-12 20:05:00,67.5,64.1,29.75,North,0,0.0,0.0,86,0.00,NA,NA,0.53,meteo_script,2013-06-13 01:05:00,
2013-06-12 20:35:00,66.1,62.7,29.76,NNE,19,0.6,2.0,86,0.08,NA,NA,0.57,meteo_script,2013-06-13 01:35:00,
2013-06-12 21:05:00,65.2,62.1,29.77,ENE,77,1.8,4.0,87,0.10,NA,NA,0.62,meteo_script,2013-06-13 02:05:00,
2013-06-12 21:35:00,65.0,62.3,29.78,NE,43,1.1,4.0,88,0.32,NA,NA,0.78,meteo_script,2013-06-13 02:35:00,
2013-06-12 22:05:00,65.2,62.6,29.79,ENE,66,2.7,5.0,89,0.02,NA,NA,0.79,meteo_script,2013-06-13 03:05:00,
2013-06-12 22:35:00,64.8,62.0,29.74,ENE,58,2.7,7.0,88,0.00,NA,NA,0.79,meteo_script,2013-06-13 03:35:00,
2013-06-12 23:05:00,64.2,61.4,29.74,West,268,0.5,3.0,88,0.04,NA,NA,0.81,meteo_script,2013-06-13 04:05:00,
2013-06-12 23:35:00,64.3,61.5,29.80,North,0,0.0,0.0,88,0.00,NA,NA,0.81,meteo_script,2013-06-13 04:35:00,